[[{"header":{"parameterUnit":"m.s-1","parameterCategory":1,"la1":30.2991,"la2":30.254,"lo1":-89.0895,"lo2":-89.0444,"dy":0.0017,"dx":0.0017,"nx":28,"ny":28,"refTime":"2024-03-22T03:00:00:Z","depth":0,"parameterNumber":2,"parameterNumberName":"U-component_of_WINDS"},"data":[0,0,0,0,0,0,0,0,0,0,0,0,0,0,0,0,0,0,0,0,0,0,0,0,0,0,0,0,0,0,0,0,0,0,0,0,0,0,0,0,0,0,0,0,0,0,0,0,0,0,0,0,0,0,0,0,0,0,-2.9025,-2.9026,0,-2.9075,-2.9076,-2.9076,-2.9007,-2.9004,-2.9002,-2.8999,-2.9057,-2.906,-2.9064,0,0,0,0,0,0,0,0,0,0,0,0,0,-2.8878,-2.8881,-2.9025,-2.9026,-2.9026,-2.9075,-2.9076,-2.9077,-2.9007,-2.9004,-2.9001,-2.8998,-2.9055,-2.906,-2.9065,0,0,0,0,0,0,0,0,0,0,0,0,0,-2.8936,-2.8882,-2.9025,-2.8997,-2.8995,-2.9075,-2.9076,-2.9077,-2.9008,-2.9004,-2.9,-2.8997,-2.9054,-2.906,-2.9065,-2.9176,0,0,-2.9083,-2.9085,0,0,0,0,0,0,0,0,-2.8933,-2.8942,-2.9001,-2.8999,-2.8997,-2.9031,-2.9045,-2.911,-2.9009,-2.9003,-2.8999,-2.8995,-2.9052,-2.9057,-2.9075,-2.9179,-2.9181,-2.9083,-2.9087,-2.9089,-2.9091,0,0,0,0,0,0,0,-2.8929,-2.8939,-2.9045,-2.9002,-2.9,-2.8985,-2.899,-2.9057,-2.9048,-2.9003,-2.8998,-2.9005,-2.905,-2.907,-2.9076,-2.9182,-2.9083,-2.9088,-2.9092,-2.9094,-2.9385,-2.9389,0,0,0,0,0,0,-2.8927,-2.8936,-2.9043,-2.9046,-2.8955,-2.8991,-2.8996,-2.9024,-2.9047,-2.9047,-2.9008,-2.9002,-2.9062,-2.9069,-2.9078,-2.9212,-2.9089,-2.9095,-2.9098,-2.938,-2.9386,-2.939,0,0,0,0,0,0,-2.8924,-2.8937,-2.9041,-2.899,-2.9002,-2.8998,-2.903,-2.9027,-2.9046,-2.9051,-2.9049,-2.903,-2.9059,-2.907,-2.9153,-2.9213,-2.9097,-2.9103,-2.9375,-2.9382,-2.9388,-2.948,0,0,0,0,0,0,-2.892,-2.8937,-2.8976,-2.8991,-2.9005,-2.9113,-2.9033,-2.9031,-2.9056,-2.9048,-2.907,-2.907,-2.9057,-2.9145,-2.9159,-2.9219,-2.9107,-2.937,-2.9378,-2.9386,-2.9471,-2.9488,-2.9503,0,0,0,0,0,-2.8915,-2.9,-2.8979,-2.8992,-2.9054,-2.9117,-2.9125,-2.9106,-2.9061,-2.9103,-2.9106,-2.907,-2.9204,-2.9154,-2.9169,-2.9232,-2.9366,-2.9376,-2.9385,-2.9464,-2.9485,-2.9502,0,0,0,0,0,0,-2.8993,-2.9002,-2.8978,-2.9069,-2.9093,-2.9105,-2.9156,-2.9128,-2.9165,-2.9157,-2.9133,-2.9139,-2.9229,-2.9238,-2.9182,-2.9343,-2.9278,-2.9291,-2.9333,-2.9353,-2.9368,-2.9365,-2.9112,0,0,0,0,0,-2.9021,-2.9069,-2.9074,-2.9155,-2.9168,-2.9161,-2.9187,-2.9171,-2.9194,-2.9204,-2.9213,-2.924,-2.9289,-2.9321,-2.9366,-2.9472,-2.9479,-2.9524,-2.954,-2.9553,-2.9564,-2.9626,-2.9647,-2.9421,-2.9421,-2.9421,0,0,-2.9079,-2.9089,-2.9121,-2.9171,-2.9187,-2.924,-2.9169,-2.9227,-2.9267,-2.9214,-2.9293,-2.9302,-2.933,-2.9427,-2.947,-2.9438,-2.9628,-2.9565,-2.9575,-2.958,-2.9638,-2.9659,-2.9678,-2.9428,-2.9427,-2.9426,0,0,-2.9212,-2.9223,-2.9293,-2.9312,-2.9337,-2.9332,-2.935,-2.9367,-2.937,-2.9449,-2.9411,-2.946,-2.9543,-2.9566,-2.9589,-2.9736,-2.9706,-2.9752,-2.9835,-2.9895,-2.9913,-2.9929,-2.9984,-3.0004,-2.9763,-2.9764,-2.9764,0,-2.9281,-2.9357,-2.9334,-2.9395,-2.9421,-2.9374,-2.9448,-2.9467,-2.9507,-2.9527,-2.949,-2.9596,-2.9611,-2.9715,-2.9751,-2.977,-2.9792,-2.9749,-2.9912,-2.9927,-2.9942,-2.9994,-3.0015,-2.9769,-2.9769,-2.9768,-2.9768,0,-2.9443,-2.9496,-2.9551,-2.959,-2.9621,-2.9688,-2.9679,-2.9714,-2.9696,-2.9697,-2.9781,-2.9798,-2.9848,-2.9871,-2.9854,-2.9974,-2.9953,-2.9915,-2.9849,-2.9969,-3.0019,-3.0038,-2.9777,-2.9775,-2.9774,-2.9772,0,0,-2.9623,-2.9651,-2.9672,-2.9691,-2.9717,-2.976,-2.9828,-2.9875,-2.9907,-2.9937,-2.9996,-3.0069,-3.0035,-3.0061,-3.0047,-3.01,-3.022,-3.0055,-3.0055,-3.0087,-3.0357,-3.0386,-3.041,-3.0199,-3.0203,-3.0206,-3.0355,0,-2.9758,-2.9872,-2.9856,-2.9967,-3.0019,-2.9979,-3.0038,-3.0063,-3.0067,-3.0114,-3.0118,-3.0171,-3.012,-3.0136,-3.0187,-3.0194,-3.0274,-3.0183,-3.0257,-3.026,-3.0251,-3.0435,-3.0466,-3.0605,-3.0374,-3.0377,-3.0379,0,-2.9929,-2.9966,-3.0083,-3.0105,-3.0126,-3.018,-3.0224,-3.0268,-3.0298,-3.0297,-3.0328,-3.0306,-3.0378,-3.0312,-3.0412,-3.0351,-3.0381,-3.039,-3.0395,-3.0402,-3.0327,-3.0449,-3.0649,-3.067,-3.0409,-3.0407,-3.0405,0,-3.0053,-3.0131,-3.0212,-3.023,-3.0257,-3.0297,-3.031,-3.0336,-3.0367,-3.0407,-3.0427,-3.0476,-3.0503,-3.0542,-3.0536,-3.0487,-3.064,-3.0572,-3.0644,-3.0644,-3.0678,-3.0676,-3.0887,-3.0695,-3.0695,-3.0694,-3.0694,0,-3.0205,-3.0279,-3.0269,-3.0318,-3.0402,-3.0384,-3.0468,-3.0477,-3.0501,-3.0554,-3.0523,-3.0574,-3.0561,-3.0614,-3.0609,-3.0696,-3.0708,-3.0711,-3.071,-3.0715,-3.0715,-3.0734,-3.0725,-3.07,-3.0699,-3.0698,-3.0697,0,-3.0357,-3.0352,-3.0438,-3.0458,-3.0466,-3.0526,-3.0545,-3.0594,-3.0596,-3.0665,-3.068,-3.0684,-3.0745,-3.0742,-3.081,-3.0808,-3.0915,-3.0901,-3.0904,-3.0902,-3.0975,-3.0969,-3.1207,-3.1238,-3.1025,-3.1027,-3.1029,0,-3.0455,-3.0511,-3.0538,-3.0571,-3.0587,-3.0641,-3.0673,-3.066,-3.0695,-3.0735,-3.078,-3.0838,-3.0883,-3.0982,-3.0993,-3.1047,-3.1035,-3.1115,-3.1043,-3.1048,-3.1039,-3.1036,-3.1043,-3.1129,-3.1132,-3.1133,-3.1135,0,-3.063,-3.0626,-3.0672,-3.0719,-3.0758,-3.0795,-3.0828,-3.0858,-3.0849,-3.0891,-3.0952,-3.0987,-3.1058,-3.1117,-3.1169,-3.1186,-3.1161,-3.1158,-3.1178,-3.1184,-3.1184,-3.1188,-3.0944,-3.1152,-3.1151,-3.1149,-3.1148,-3.1148,-3.0759,-3.0808,-3.0836,-3.089,-3.0914,-3.0947,-3.0995,-3.1004,-3.1054,-3.111,-3.11,-3.117,-3.1203,-3.127,-3.1292,-3.1349,-3.1321,-3.1349,-3.1356,-3.1364,-3.1373,-3.1175,-3.1358,-3.1358,-3.1357,-3.1357,-3.1357,0,-3.0935,-3.0951,-3.1001,-3.1049,-3.1093,-3.1064,-3.1101,-3.114,-3.1201,-3.1233,-3.1279,-3.1352,-3.141,-3.1427,-3.1483,-3.1526,-3.1516,-3.1541,-3.1539,-3.1544,-3.1394,-3.1372,-3.1549,-3.1549,-3.1549,-3.1549,-3.1549,-3.1549,-3.1031,-3.1114,-3.1114,-3.1211,-3.1227,-3.1294,-3.1318,-3.135,-3.1376,-3.1458,-3.1506,-3.1516,-3.1544,-3.1603,-3.1656,-3.166,-3.1683,-3.1714,-3.1714,-3.1573,-3.1554,-3.1535,-3.1515,-3.1719,-3.1719,-3.1859,-3.186,-3.1861]},{"header":{"parameterUnit":"m.s-1","parameterCategory":1,"la1":30.2991,"la2":30.254,"lo1":-89.0895,"lo2":-89.0444,"dy":0.0017,"dx":0.0017,"nx":28,"ny":28,"refTime":"2024-03-22T03:00:00:Z","depth":0,"parameterNumber":3,"parameterNumberName":"V-component_of_WINDS"},"data":[0,0,0,0,0,0,0,0,0,0,0,0,0,0,0,0,0,0,0,0,0,0,0,0,0,0,0,0,0,0,0,0,0,0,0,0,0,0,0,0,0,0,0,0,0,0,0,0,0,0,0,0,0,0,0,0,0,0,-3.1252,-3.1252,0,-3.1277,-3.1277,-3.1277,-3.1248,-3.1247,-3.1246,-3.1245,-3.1268,-3.127,-3.1272,0,0,0,0,0,0,0,0,0,0,0,0,0,-3.1173,-3.1175,-3.1251,-3.1252,-3.1252,-3.1277,-3.1277,-3.1278,-3.1248,-3.1247,-3.1246,-3.1245,-3.1268,-3.127,-3.1272,0,0,0,0,0,0,0,0,0,0,0,0,0,-3.1204,-3.1175,-3.1251,-3.1241,-3.124,-3.1277,-3.1277,-3.1278,-3.1249,-3.1247,-3.1245,-3.1244,-3.1267,-3.127,-3.1272,-3.132,0,0,-3.1279,-3.128,0,0,0,0,0,0,0,0,-3.1202,-3.1207,-3.1242,-3.1241,-3.1241,-3.1258,-3.1258,-3.1292,-3.1249,-3.1245,-3.1245,-3.1243,-3.1266,-3.1268,-3.1277,-3.1321,-3.1322,-3.128,-3.1281,-3.1282,-3.1283,0,0,0,0,0,0,0,-3.12,-3.1205,-3.1261,-3.1242,-3.1242,-3.1233,-3.1236,-3.1264,-3.1264,-3.1246,-3.1244,-3.1247,-3.1265,-3.1274,-3.1277,-3.1322,-3.128,-3.1282,-3.1283,-3.1284,-3.1404,-3.1405,0,0,0,0,0,0,-3.12,-3.1204,-3.1261,-3.1262,-3.1217,-3.1236,-3.1239,-3.1254,-3.1264,-3.1264,-3.1248,-3.1246,-3.1271,-3.1274,-3.1278,-3.1332,-3.1282,-3.1284,-3.1286,-3.1402,-3.1404,-3.1406,0,0,0,0,0,0,-3.1198,-3.1205,-3.126,-3.1232,-3.1239,-3.1239,-3.1256,-3.1255,-3.1264,-3.1266,-3.1266,-3.1258,-3.127,-3.1274,-3.1309,-3.1333,-3.1286,-3.1288,-3.14,-3.1403,-3.1405,-3.1444,0,0,0,0,0,0,-3.1196,-3.1205,-3.1224,-3.1233,-3.124,-3.1292,-3.1258,-3.1257,-3.1269,-3.1266,-3.1275,-3.1275,-3.1269,-3.1306,-3.1311,-3.1335,-3.129,-3.1398,-3.1401,-3.1404,-3.144,-3.1447,-3.1453,0,0,0,0,0,-3.1193,-3.1234,-3.1225,-3.1232,-3.1265,-3.1294,-3.1297,-3.129,-3.1271,-3.129,-3.129,-3.1275,-3.133,-3.1309,-3.1316,-3.1341,-3.1396,-3.14,-3.1404,-3.1437,-3.1446,-3.1453,0,0,0,0,0,0,-3.1227,-3.1235,-3.1225,-3.1271,-3.1282,-3.1289,-3.1312,-3.13,-3.1316,-3.1312,-3.1302,-3.1304,-3.1341,-3.1344,-3.1322,-3.1386,-3.136,-3.1365,-3.1382,-3.1391,-3.1397,-3.1395,-3.1292,0,0,0,0,0,-3.124,-3.1264,-3.1269,-3.1308,-3.1314,-3.1312,-3.1324,-3.1318,-3.1328,-3.1333,-3.1336,-3.1346,-3.1365,-3.1378,-3.1396,-3.1441,-3.1441,-3.1461,-3.1467,-3.1472,-3.1477,-3.1498,-3.1506,-3.1419,-3.1419,-3.1419,0,0,-3.1267,-3.1274,-3.1289,-3.1315,-3.1323,-3.1346,-3.1316,-3.1343,-3.1359,-3.1337,-3.1369,-3.1372,-3.1382,-3.1422,-3.1439,-3.1426,-3.1501,-3.1477,-3.1482,-3.1483,-3.1503,-3.1511,-3.1519,-3.1421,-3.1421,-3.142,0,0,-3.1326,-3.1335,-3.1368,-3.1376,-3.1388,-3.1386,-3.1394,-3.1402,-3.1403,-3.1436,-3.1419,-3.1438,-3.1472,-3.1479,-3.1487,-3.1548,-3.1533,-3.1554,-3.1587,-3.1608,-3.1615,-3.1621,-3.1641,-3.1648,-3.1558,-3.1558,-3.1559,0,-3.1358,-3.1393,-3.1386,-3.1413,-3.1423,-3.1404,-3.1435,-3.1443,-3.1461,-3.1468,-3.1453,-3.1494,-3.1499,-3.1539,-3.1553,-3.1561,-3.1568,-3.1552,-3.1615,-3.1621,-3.1626,-3.1645,-3.1652,-3.1561,-3.156,-3.156,-3.156,0,-3.1429,-3.1454,-3.1479,-3.1496,-3.1509,-3.1538,-3.1533,-3.1548,-3.1539,-3.1539,-3.1571,-3.1577,-3.1595,-3.1604,-3.1596,-3.1642,-3.1633,-3.1617,-3.1589,-3.1637,-3.1654,-3.1661,-3.1564,-3.1563,-3.1563,-3.1562,0,0,-3.1512,-3.1523,-3.1532,-3.1539,-3.155,-3.1568,-3.1595,-3.1613,-3.1624,-3.1637,-3.1658,-3.1686,-3.1671,-3.168,-3.1673,-3.1691,-3.1736,-3.1672,-3.1672,-3.1683,-3.1784,-3.1795,-3.1803,-3.1727,-3.1728,-3.1729,-3.1782,0,-3.1571,-3.1619,-3.1611,-3.1657,-3.1678,-3.1659,-3.1683,-3.1691,-3.169,-3.1707,-3.1706,-3.1726,-3.1705,-3.171,-3.1728,-3.1727,-3.1756,-3.1723,-3.1745,-3.1746,-3.1741,-3.1813,-3.1825,-3.1875,-3.1789,-3.179,-3.1791,0,-3.1646,-3.166,-3.1708,-3.1713,-3.1722,-3.1743,-3.1757,-3.1774,-3.1783,-3.1781,-3.179,-3.1779,-3.1805,-3.1778,-3.1811,-3.1789,-3.1797,-3.1798,-3.18,-3.18,-3.177,-3.1814,-3.1891,-3.1898,-3.1802,-3.1801,-3.18,0,-3.1698,-3.173,-3.1762,-3.1768,-3.1776,-3.1791,-3.1795,-3.1801,-3.1812,-3.1824,-3.183,-3.1846,-3.1853,-3.1865,-3.1857,-3.1839,-3.1891,-3.1864,-3.1889,-3.1889,-3.19,-3.1899,-3.1978,-3.1908,-3.1908,-3.1908,-3.1908,0,-3.1763,-3.1793,-3.1785,-3.1805,-3.1836,-3.1827,-3.1858,-3.1859,-3.1865,-3.1883,-3.1868,-3.1885,-3.1875,-3.1891,-3.1886,-3.1913,-3.1917,-3.1915,-3.1913,-3.1916,-3.1916,-3.192,-3.1916,-3.191,-3.1909,-3.1909,-3.1909,0,-3.1828,-3.1824,-3.1857,-3.1861,-3.1863,-3.1886,-3.1889,-3.1906,-3.1904,-3.1927,-3.1932,-3.1928,-3.1946,-3.194,-3.1959,-3.1955,-3.199,-3.1984,-3.1987,-3.1985,-3.2009,-3.2006,-3.2092,-3.2102,-3.2027,-3.2028,-3.2029,0,-3.1869,-3.1891,-3.1897,-3.1908,-3.1913,-3.1932,-3.1942,-3.1933,-3.1944,-3.1954,-3.197,-3.1986,-3.1999,-3.2028,-3.2026,-3.204,-3.2034,-3.2063,-3.2036,-3.2037,-3.2032,-3.203,-3.2031,-3.2068,-3.2069,-3.2069,-3.207,0,-3.1941,-3.1938,-3.1954,-3.1968,-3.1981,-3.1992,-3.2001,-3.2011,-3.2002,-3.2015,-3.2033,-3.2043,-3.2062,-3.2078,-3.209,-3.2093,-3.2079,-3.2079,-3.2085,-3.2087,-3.2087,-3.2085,-3.2,-3.2076,-3.2076,-3.2075,-3.2075,-3.2075,-3.1994,-3.2011,-3.2018,-3.2035,-3.2041,-3.205,-3.2066,-3.2065,-3.208,-3.2095,-3.2089,-3.2109,-3.2115,-3.213,-3.2135,-3.2149,-3.2138,-3.2147,-3.2149,-3.2151,-3.2153,-3.2086,-3.2152,-3.2152,-3.2151,-3.2151,-3.2151,0,-3.2063,-3.2066,-3.2083,-3.2096,-3.2109,-3.2096,-3.2105,-3.2116,-3.2135,-3.2141,-3.2154,-3.2173,-3.2188,-3.2188,-3.2201,-3.2213,-3.2207,-3.2217,-3.2215,-3.2215,-3.2164,-3.2156,-3.2221,-3.2221,-3.2221,-3.2221,-3.2221,-3.2221,-3.2101,-3.213,-3.2127,-3.2157,-3.216,-3.218,-3.2186,-3.2193,-3.2198,-3.2221,-3.2233,-3.2233,-3.2236,-3.2249,-3.2262,-3.2261,-3.2266,-3.2277,-3.2274,-3.2226,-3.2219,-3.2212,-3.2205,-3.2279,-3.2279,-3.2324,-3.2324,-3.2325]}]]